| time (UTC) | temp F | wind direction | speed knots | gust knots | rain 1hr in | rain 24hr in | rain mn in | humidity % | barometer mb |
| 20260905204925 | 94 | 176 | 0.0 | 0.9 | 0.00 | 0.02 | 0.02 | 54 | 1016.3 |
| 20260905204422 | 94 | 190 | 0.9 | 1.7 | 0.00 | 0.02 | 0.02 | 52 | 1015.9 |
| 20260905203921 | 93 | 329 | 2.6 | 2.6 | 0.00 | 0.02 | 0.02 | 51 | 1016.3 |
| 20260905203416 | 94 | 134 | 0.9 | 1.7 | 0.00 | 0.02 | 0.02 | 50 | 1016.3 |
| 20260905202912 | 93 | 318 | 1.7 | 4.3 | 0.00 | 0.02 | 0.02 | 53 | 1016.1 |
| 20260905202407 | 93 | 155 | 0.0 | 0.0 | 0.00 | 0.02 | 0.02 | 56 | 1016.4 |
| 20260905201903 | 91 | 181 | 1.7 | 1.7 | 0.00 | 0.02 | 0.02 | 59 | 1016.5 |
| 20260905201358 | 89 | 301 | 2.6 | 4.3 | 0.00 | 0.02 | 0.02 | 65 | 1016.4 |
| 20260905200857 | 87 | 145 | 1.7 | 1.7 | 0.00 | 0.02 | 0.02 | 70 | 1016.7 |
| 20260905200353 | 88 | 140 | 0.9 | 1.7 | 0.00 | 0.02 | 0.02 | 68 | 1016.7 |
| 20260905195851 | 88 | 11 | 0.9 | 1.7 | 0.00 | 0.02 | 0.02 | 65 | 1016.8 |
| 20260905195347 | 90 | 167 | 0.0 | 0.9 | 0.00 | 0.02 | 0.02 | 69 | 1016.9 |
| 20260905194843 | 91 | 171 | 0.0 | 0.0 | 0.00 | 0.02 | 0.02 | 67 | 1016.7 |
| 20260905194342 | 91 | 158 | 0.0 | 0.0 | 0.00 | 0.02 | 0.02 | 66 | 1017.0 |
| 20260905193841 | 92 | 114 | 0.0 | 0.0 | 0.00 | 0.02 | 0.02 | 65 | 1016.8 |
| 20260905193336 | 92 | 175 | 0.0 | 0.0 | 0.00 | 0.02 | 0.02 | 63 | 1017.0 |
| 20260905192832 | 92 | 181 | 0.0 | 0.0 | 0.00 | 0.02 | 0.02 | 63 | 1016.9 |
| 20260905192328 | 91 | 180 | 0.0 | 0.9 | 0.00 | 0.02 | 0.02 | 65 | 1017.0 |
| 20260905191827 | 93 | 211 | 2.6 | 2.6 | 0.00 | 0.02 | 0.02 | 62 | 1017.2 |
| 20260905191326 | 94 | 328 | 0.9 | 0.9 | 0.00 | 0.02 | 0.02 | 58 | 1017.0 |
| 20260905190825 | 94 | 216 | 0.9 | 0.9 | 0.00 | 0.02 | 0.02 | 57 | 1017.1 |
| 20260905190324 | 95 | 306 | 0.9 | 0.9 | 0.00 | 0.02 | 0.02 | 56 | 1017.1 |
| 20260905185823 | 95 | 165 | 0.0 | 0.0 | 0.00 | 0.02 | 0.02 | 55 | 1016.8 |
| 20260905185319 | 94 | 183 | 0.9 | 1.7 | 0.00 | 0.02 | 0.02 | 58 | 1017.1 |
| 20260905184818 | 94 | 300 | 0.9 | 0.9 | 0.00 | 0.02 | 0.02 | 59 | 1017.3 |
| 20260905184317 | 93 | 256 | 0.0 | 0.0 | 0.00 | 0.02 | 0.02 | 60 | 1017.5 |
| 20260905183816 | 93 | 178 | 0.0 | 0.0 | 0.00 | 0.02 | 0.02 | 61 | 1017.3 |
| 20260905183311 | 92 | 169 | 1.7 | 1.7 | 0.00 | 0.02 | 0.02 | 62 | 1017.5 |
| 20260905182806 | 91 | 168 | 1.7 | 2.6 | 0.00 | 0.02 | 0.02 | 61 | 1017.5 |
| 20260905182306 | 91 | 165 | 4.3 | 4.3 | 0.00 | 0.02 | 0.02 | 62 | 1017.6 |
| 20260905181801 | 92 | 227 | 0.9 | 1.7 | 0.00 | 0.02 | 0.02 | 62 | 1017.7 |
| 20260905181301 | 91 | 186 | 0.0 | 0.0 | 0.00 | 0.02 | 0.02 | 63 | 1017.5 |
| 20260905180800 | 90 | 171 | 2.6 | 4.3 | 0.00 | 0.02 | 0.02 | 63 | 1017.6 |
| 20260905180255 | 90 | 177 | 0.9 | 0.9 | 0.00 | 0.02 | 0.02 | 63 | 1017.6 |
| 20260905175755 | 90 | 233 | 0.9 | 0.9 | 0.00 | 0.02 | 0.02 | 65 | 1017.8 |
| 20260905175250 | 90 | 164 | 3.5 | 4.3 | 0.00 | 0.02 | 0.02 | 64 | 1017.6 |
| 20260905174745 | 89 | 179 | 1.7 | 1.7 | 0.00 | 0.02 | 0.02 | 67 | 1017.7 |
| 20260905174241 | 90 | 215 | 3.5 | 5.2 | 0.00 | 0.02 | 0.02 | 64 | 1017.8 |
| 20260905173737 | 89 | 160 | 0.9 | 1.7 | 0.00 | 0.02 | 0.02 | 64 | 1017.4 |
| 20260905173232 | 89 | 183 | 2.6 | 4.3 | 0.00 | 0.02 | 0.02 | 63 | 1017.5 |
| 20260905172727 | 89 | 145 | 3.5 | 4.3 | 0.00 | 0.02 | 0.02 | 65 | 1017.6 |
| 20260905172226 | 89 | 214 | 2.6 | 2.6 | 0.00 | 0.02 | 0.02 | 65 | 1017.7 |
| 20260905171722 | 88 | 146 | 3.5 | 5.2 | 0.00 | 0.02 | 0.02 | 64 | 1017.7 |
| 20260905171218 | 89 | 184 | 1.7 | 1.7 | 0.00 | 0.02 | 0.02 | 64 | 1017.6 |
| 20260905170715 | 88 | 123 | 3.5 | 4.3 | 0.00 | 0.02 | 0.02 | 65 | 1017.8 |
| 20260905170215 | 88 | 158 | 2.6 | 4.3 | 0.00 | 0.02 | 0.02 | 66 | 1017.7 |
| 20260905165715 | 87 | 172 | 0.9 | 1.7 | 0.00 | 0.02 | 0.02 | 66 | 1017.7 |
| 20260905165210 | 87 | 149 | 2.6 | 2.6 | 0.00 | 0.02 | 0.02 | 64 | 1018.1 |
| 20260905164705 | 87 | 141 | 3.5 | 4.3 | 0.00 | 0.02 | 0.02 | 67 | 1017.9 |
| 20260905164205 | 87 | 204 | 1.7 | 1.7 | 0.00 | 0.02 | 0.02 | 66 | 1017.6 |
| 20260905163700 | 86 | 155 | 3.5 | 4.3 | 0.00 | 0.02 | 0.02 | 67 | 1017.8 |
| 20260905163157 | 85 | 157 | 4.3 | 5.2 | 0.00 | 0.02 | 0.02 | 68 | 1017.6 |
| 20260905162653 | 86 | 154 | 3.5 | 4.3 | 0.00 | 0.02 | 0.02 | 66 | 1017.6 |
| 20260905162153 | 86 | 179 | 3.5 | 4.3 | 0.00 | 0.02 | 0.02 | 67 | 1017.9 |
| 20260905161648 | 84 | 167 | 1.7 | 1.7 | 0.00 | 0.02 | 0.02 | 68 | 1017.8 |
| 20260905161145 | 83 | 171 | 4.3 | 5.2 | 0.00 | 0.02 | 0.02 | 68 | 1017.9 |
| 20260905160644 | 84 | 149 | 3.5 | 4.3 | 0.00 | 0.02 | 0.02 | 67 | 1017.7 |
| 20260905160143 | 85 | 207 | 5.2 | 7.0 | 0.00 | 0.02 | 0.02 | 65 | 1017.7 |
| 20260905155638 | 85 | 128 | 3.5 | 5.2 | 0.00 | 0.02 | 0.02 | 65 | 1017.6 |
| 20260905155138 | 85 | 155 | 5.2 | 6.1 | 0.00 | 0.02 | 0.02 | 67 | 1017.8 |
| 20260905154637 | 84 | 165 | 4.3 | 4.3 | 0.00 | 0.02 | 0.02 | 67 | 1017.9 |
| 20260905154133 | 84 | 181 | 4.3 | 5.2 | 0.00 | 0.02 | 0.02 | 66 | 1017.8 |
| 20260905153629 | 83 | 173 | 6.1 | 7.0 | 0.00 | 0.02 | 0.02 | 67 | 1017.8 |
| 20260905153124 | 83 | 137 | 6.1 | 7.0 | 0.00 | 0.02 | 0.02 | 68 | 1017.8 |
| 20260905152619 | 83 | 181 | 2.6 | 4.3 | 0.00 | 0.02 | 0.02 | 69 | 1017.6 |
| 20260905152113 | 83 | 100 | 5.2 | 6.1 | 0.00 | 0.02 | 0.02 | 69 | 1017.6 |
| 20260905151609 | 83 | 161 | 6.1 | 8.7 | 0.00 | 0.02 | 0.02 | 71 | 1017.5 |
| 20260905151104 | 82 | 151 | 4.3 | 7.0 | 0.00 | 0.02 | 0.02 | 71 | 1017.7 |
| 20260905150559 | 82 | 157 | 6.1 | 7.0 | 0.00 | 0.02 | 0.02 | 70 | 1017.8 |
| 20260905150057 | 82 | 174 | 6.1 | 7.8 | 0.00 | 0.02 | 0.02 | 71 | 1018.1 |
| 20260905145556 | 82 | 127 | 6.1 | 7.8 | 0.00 | 0.02 | 0.02 | 71 | 1017.9 |
| 20260905145055 | 81 | 167 | 7.8 | 8.7 | 0.00 | 0.02 | 0.02 | 70 | 1017.9 |
| 20260905144551 | 81 | 185 | 5.2 | 7.0 | 0.00 | 0.02 | 0.02 | 72 | 1017.8 |
| 20260905144050 | 81 | 129 | 6.1 | 7.8 | 0.00 | 0.02 | 0.02 | 72 | 1017.7 |
| 20260905143549 | 81 | 142 | 5.2 | 6.1 | 0.00 | 0.02 | 0.02 | 73 | 1017.8 |
| 20260905143044 | 81 | 149 | 5.2 | 7.0 | 0.00 | 0.02 | 0.02 | 74 | 1017.6 |
| 20260905142543 | 81 | 166 | 2.6 | 4.3 | 0.00 | 0.02 | 0.02 | 76 | 1017.5 |
| 20260905142039 | 80 | 144 | 4.3 | 5.2 | 0.00 | 0.02 | 0.02 | 77 | 1017.3 |
| 20260905141538 | 80 | 192 | 4.3 | 6.1 | 0.00 | 0.02 | 0.02 | 78 | 1017.4 |
| 20260905141036 | 80 | 178 | 4.3 | 5.2 | 0.00 | 0.02 | 0.02 | 81 | 1017.6 |
| 20260905140535 | 79 | 156 | 4.3 | 7.0 | 0.00 | 0.02 | 0.02 | 84 | 1017.5 |
| 20260905140034 | 79 | 155 | 7.0 | 7.8 | 0.00 | 0.02 | 0.02 | 84 | 1017.5 |
| 20260905135531 | 79 | 127 | 5.2 | 7.8 | 0.00 | 0.02 | 0.02 | 84 | 1017.4 |
| 20260905135031 | 79 | 156 | 3.5 | 5.2 | 0.00 | 0.02 | 0.02 | 84 | 1017.2 |
| 20260905134526 | 79 | 143 | 6.1 | 7.8 | 0.00 | 0.02 | 0.02 | 84 | 1017.6 |
| 20260905134024 | 79 | 92 | 4.3 | 6.1 | 0.00 | 0.02 | 0.02 | 86 | 1017.2 |
| 20260905133520 | 79 | 135 | 7.8 | 11.3 | 0.00 | 0.02 | 0.02 | 86 | 1017.4 |
| 20260905133020 | 78 | 127 | 4.3 | 6.1 | 0.00 | 0.02 | 0.02 | 89 | 1017.5 |
| 20260905132519 | 78 | 116 | 4.3 | 6.1 | 0.00 | 0.02 | 0.02 | 89 | 1017.4 |
| 20260905132014 | 77 | 172 | 5.2 | 6.1 | 0.00 | 0.02 | 0.02 | 90 | 1017.4 |
| 20260905131515 | 77 | 129 | 7.0 | 7.8 | 0.00 | 0.02 | 0.02 | 93 | 1017.3 |
| 20260905131010 | 77 | 98 | 2.6 | 2.6 | 0.00 | 0.02 | 0.02 | 95 | 1017.3 |
| 20260905130509 | 77 | 124 | 0.0 | 0.0 | 0.00 | 0.02 | 0.02 | 94 | 1017.0 |
| 20260905130004 | 77 | 121 | 0.0 | 0.0 | 0.00 | 0.02 | 0.02 | 93 | 1017.1 |
| 20260905125458 | 77 | 135 | 0.0 | 0.0 | 0.00 | 0.02 | 0.02 | 93 | 1017.0 |
| 20260905124954 | 77 | 135 | 0.0 | 0.0 | 0.00 | 0.02 | 0.02 | 92 | 1016.9 |
| 20260905124451 | 77 | 135 | 0.0 | 0.0 | 0.00 | 0.02 | 0.02 | 92 | 1016.9 |
| 20260905123946 | 77 | 135 | 0.0 | 0.0 | 0.00 | 0.02 | 0.02 | 93 | 1016.8 |
| 20260905123442 | 77 | 135 | 0.0 | 0.0 | 0.00 | 0.02 | 0.02 | 93 | 1017.2 |
| 20260905122942 | 77 | 140 | 0.0 | 0.9 | 0.00 | 0.02 | 0.02 | 93 | 1016.8 |
| 20260905122442 | 77 | 171 | 0.0 | 0.0 | 0.00 | 0.02 | 0.02 | 95 | 1016.7 |
| 20260905121938 | 76 | 180 | 0.0 | 0.0 | 0.00 | 0.02 | 0.02 | 96 | 1016.7 |
| 20260905121433 | 76 | 189 | 0.0 | 0.0 | 0.00 | 0.02 | 0.02 | 96 | 1016.7 |
| 20260905120932 | 75 | 185 | 0.0 | 0.0 | 0.00 | 0.02 | 0.02 | 97 | 1016.4 |
| 20260905120427 | 75 | 178 | 0.0 | 0.0 | 0.00 | 0.02 | 0.02 | 97 | 1016.6 |
| 20260905115922 | 75 | 192 | 0.0 | 0.0 | 0.00 | 0.02 | 0.02 | 97 | 1016.4 |
| 20260905115421 | 74 | 193 | 0.0 | 0.0 | 0.00 | 0.02 | 0.02 | 97 | 1016.4 |
| 20260905114917 | 74 | 204 | 0.0 | 0.0 | 0.00 | 0.02 | 0.02 | 97 | 1016.2 |
| 20260905114416 | 74 | 208 | 0.0 | 0.0 | 0.00 | 0.02 | 0.02 | 97 | 1016.6 |
| 20260905113915 | 74 | 159 | 0.0 | 0.0 | 0.00 | 0.02 | 0.02 | 97 | 1016.6 |
| 20260905113411 | 74 | 144 | 0.0 | 0.0 | 0.00 | 0.02 | 0.02 | 97 | 1016.3 |
| 20260905112906 | 74 | 180 | 0.0 | 0.0 | 0.00 | 0.02 | 0.02 | 97 | 1016.5 |
| 20260905112401 | 74 | 151 | 0.0 | 0.0 | 0.05 | 0.02 | 0.02 | 97 | 1016.4 |
| 20260905111856 | 74 | 151 | 0.0 | 0.0 | 0.12 | 0.02 | 0.02 | 97 | 1016.4 |
| 20260905111356 | 73 | 163 | 0.0 | 0.0 | 0.07 | 0.01 | 0.01 | 97 | 1016.4 |
| 20260905110856 | 73 | 165 | 0.0 | 0.0 | 0.00 | 0.00 | 0.00 | 97 | 1016.6 |
| 20260905110350 | 73 | 168 | 0.0 | 0.0 | 0.00 | 0.00 | 0.00 | 97 | 1016.4 |
| 20260905105845 | 73 | 181 | 0.0 | 0.0 | 0.00 | 0.00 | 0.00 | 97 | 1016.3 |
| 20260905105345 | 73 | 151 | 0.0 | 0.0 | 0.00 | 0.00 | 0.00 | 97 | 1016.7 |
| 20260905104844 | 73 | 197 | 0.0 | 0.0 | 0.00 | 0.00 | 0.00 | 97 | 1016.3 |
| 20260905104341 | 73 | 193 | 0.0 | 0.0 | 0.00 | 0.00 | 0.00 | 97 | 1016.4 |
| 20260905103841 | 73 | 165 | 0.0 | 0.0 | 0.00 | 0.00 | 0.00 | 97 | 1016.5 |
| 20260905103336 | 73 | 163 | 0.0 | 0.0 | 0.00 | 0.00 | 0.00 | 97 | 1016.4 |
| 20260905102832 | 73 | 158 | 0.0 | 0.0 | 0.00 | 0.00 | 0.00 | 97 | 1016.4 |
| 20260905102329 | 72 | 122 | 0.0 | 0.0 | 0.00 | 0.00 | 0.00 | 97 | 1016.6 |
| 20260905101828 | 72 | 142 | 0.0 | 0.0 | 0.00 | 0.00 | 0.00 | 97 | 1016.3 |
| 20260905101327 | 72 | 88 | 0.0 | 0.0 | 0.00 | 0.00 | 0.00 | 96 | 1016.6 |
| 20260905100821 | 72 | 152 | 0.0 | 0.0 | 0.00 | 0.00 | 0.00 | 96 | 1016.6 |
| 20260905100318 | 72 | 152 | 0.0 | 0.0 | 0.00 | 0.00 | 0.00 | 96 | 1016.5 |
| 20260905095817 | 73 | 152 | 0.0 | 0.0 | 0.00 | 0.00 | 0.00 | 96 | 1016.5 |
| 20260905095316 | 73 | 152 | 0.0 | 0.0 | 0.00 | 0.00 | 0.00 | 96 | 1016.6 |
| 20260905094811 | 73 | 113 | 0.0 | 0.0 | 0.00 | 0.00 | 0.00 | 96 | 1016.6 |
| 20260905094307 | 73 | 112 | 0.0 | 0.0 | 0.00 | 0.00 | 0.00 | 96 | 1016.4 |
| 20260905093806 | 73 | 112 | 0.0 | 0.0 | 0.00 | 0.00 | 0.00 | 96 | 1016.6 |
| 20260905093302 | 73 | 113 | 0.0 | 0.0 | 0.00 | 0.00 | 0.00 | 96 | 1016.5 |
| 20260905092757 | 73 | 113 | 0.0 | 0.0 | 0.00 | 0.00 | 0.00 | 96 | 1016.5 |
| 20260905092253 | 73 | 113 | 0.0 | 0.0 | 0.00 | 0.00 | 0.00 | 96 | 1016.5 |
| 20260905091752 | 73 | 113 | 0.0 | 0.0 | 0.00 | 0.00 | 0.00 | 95 | 1016.2 |
| 20260905091247 | 73 | 113 | 0.0 | 0.0 | 0.00 | 0.00 | 0.00 | 95 | 1016.4 |
| 20260905090746 | 73 | 110 | 0.0 | 0.0 | 0.00 | 0.00 | 0.00 | 95 | 1016.5 |
| 20260905090242 | 73 | 110 | 0.0 | 0.0 | 0.00 | 0.00 | 0.00 | 95 | 1016.3 |
| 20260905085742 | 73 | 110 | 0.0 | 0.0 | 0.00 | 0.00 | 0.00 | 95 | 1016.1 |
| 20260905085241 | 74 | 195 | 0.0 | 0.0 | 0.00 | 0.00 | 0.00 | 95 | 1016.3 |
| 20260905084742 | 74 | 195 | 0.0 | 0.0 | 0.00 | 0.00 | 0.00 | 95 | 1016.1 |
| 20260905084241 | 73 | 195 | 0.0 | 0.0 | 0.00 | 0.00 | 0.00 | 96 | 1016.0 |
| 20260905083736 | 74 | 195 | 0.0 | 0.0 | 0.00 | 0.00 | 0.00 | 95 | 1016.1 |
| 20260905083232 | 74 | 196 | 0.0 | 0.0 | 0.00 | 0.00 | 0.00 | 95 | 1016.1 |
| 20260905082728 | 73 | 189 | 0.0 | 0.0 | 0.00 | 0.00 | 0.00 | 96 | 1015.9 |
| 20260905082223 | 73 | 189 | 0.0 | 0.0 | 0.00 | 0.00 | 0.00 | 95 | 1016.2 |
| 20260905081718 | 73 | 189 | 0.0 | 0.0 | 0.00 | 0.00 | 0.00 | 95 | 1016.0 |
| 20260905081213 | 74 | 189 | 0.0 | 0.0 | 0.00 | 0.00 | 0.00 | 95 | 1016.1 |
| 20260905080713 | 74 | 189 | 0.0 | 0.0 | 0.00 | 0.00 | 0.00 | 95 | 1015.9 |
| 20260905080212 | 74 | 189 | 0.0 | 0.0 | 0.00 | 0.00 | 0.00 | 95 | 1016.2 |
| 20260905075712 | 74 | 159 | 0.0 | 0.0 | 0.00 | 0.00 | 0.00 | 95 | 1015.9 |
| 20260905075211 | 74 | 176 | 0.0 | 0.0 | 0.00 | 0.00 | 0.00 | 95 | 1015.9 |
| 20260905074710 | 74 | 179 | 0.0 | 0.0 | 0.00 | 0.00 | 0.00 | 96 | 1016.2 |
| 20260905074206 | 74 | 195 | 0.0 | 0.0 | 0.00 | 0.00 | 0.00 | 97 | 1015.9 |
| 20260905073701 | 73 | 218 | 0.0 | 0.0 | 0.00 | 0.00 | 0.00 | 97 | 1016.0 |
| 20260905073157 | 73 | 173 | 0.0 | 0.0 | 0.00 | 0.00 | 0.00 | 97 | 1016.0 |
| 20260905072656 | 73 | 155 | 0.0 | 0.0 | 0.00 | 0.00 | 0.00 | 97 | 1016.2 |
| 20260905072152 | 73 | 153 | 0.0 | 0.0 | 0.00 | 0.00 | 0.00 | 97 | 1016.1 |
| 20260905071648 | 73 | 151 | 0.0 | 0.0 | 0.00 | 0.00 | 0.00 | 97 | 1016.1 |
| 20260905071144 | 73 | 175 | 0.0 | 0.0 | 0.00 | 0.00 | 0.00 | 96 | 1016.1 |
| 20260905070638 | 73 | 175 | 0.0 | 0.0 | 0.00 | 0.00 | 0.00 | 96 | 1016.3 |
| 20260905070135 | 73 | 175 | 0.0 | 0.0 | 0.00 | 0.00 | 0.00 | 96 | 1016.3 |
| 20260905065633 | 73 | 175 | 0.0 | 0.0 | 0.00 | 0.00 | 0.00 | 96 | 1016.2 |
| 20260905065127 | 73 | 176 | 0.0 | 0.0 | 0.00 | 0.00 | 0.00 | 96 | 1016.5 |
| 20260905064623 | 74 | 176 | 0.0 | 0.0 | 0.00 | 0.00 | 0.00 | 96 | 1016.7 |
| 20260905064118 | 74 | 176 | 0.0 | 0.0 | 0.00 | 0.00 | 0.00 | 97 | 1016.8 |
| 20260905063617 | 74 | 176 | 0.0 | 0.0 | 0.00 | 0.00 | 0.00 | 97 | 1016.7 |
| 20260905063114 | 74 | 174 | 0.0 | 0.0 | 0.00 | 0.00 | 0.00 | 97 | 1016.7 |
| 20260905062609 | 73 | 168 | 0.0 | 0.0 | 0.00 | 0.00 | 0.00 | 97 | 1016.8 |
| 20260905062108 | 73 | 168 | 0.0 | 0.0 | 0.00 | 0.00 | 0.00 | 97 | 1016.7 |
| 20260905061603 | 73 | 162 | 0.0 | 0.0 | 0.00 | 0.00 | 0.00 | 96 | 1016.9 |
| 20260905061103 | 73 | 162 | 0.0 | 0.0 | 0.00 | 0.00 | 0.00 | 96 | 1016.9 |
| 20260905060558 | 74 | 161 | 0.0 | 0.0 | 0.00 | 0.00 | 0.00 | 96 | 1016.9 |
| 20260905060054 | 74 | 161 | 0.0 | 0.0 | 0.00 | 0.00 | 0.00 | 96 | 1016.9 |
| 20260905055553 | 74 | 161 | 0.0 | 0.0 | 0.00 | 0.00 | 0.00 | 96 | 1016.8 |
| 20260905055048 | 74 | 162 | 0.0 | 0.0 | 0.00 | 0.00 | 0.00 | 96 | 1016.9 |
| 20260905054544 | 74 | 162 | 0.0 | 0.0 | 0.00 | 0.00 | 0.00 | 96 | 1016.7 |
| 20260905054039 | 74 | 139 | 0.0 | 0.0 | 0.00 | 0.00 | 0.00 | 96 | 1017.0 |
| 20260905053538 | 74 | 139 | 0.0 | 0.0 | 0.00 | 0.00 | 0.00 | 96 | 1017.0 |
| 20260905053034 | 74 | 139 | 0.0 | 0.0 | 0.00 | 0.00 | 0.00 | 96 | 1017.1 |
| 20260905052533 | 74 | 139 | 0.0 | 0.0 | 0.00 | 0.00 | 0.00 | 96 | 1017.1 |
| 20260905052028 | 74 | 139 | 0.0 | 0.0 | 0.00 | 0.00 | 0.00 | 96 | 1017.0 |
| 20260905051524 | 74 | 139 | 0.0 | 0.0 | 0.00 | 0.00 | 0.00 | 96 | 1017.1 |
| 20260905051021 | 75 | 139 | 0.0 | 0.0 | 0.00 | 0.00 | 0.00 | 96 | 1017.1 |
| 20260905050516 | 75 | 127 | 0.0 | 0.0 | 0.00 | 0.00 | 0.00 | 96 | 1017.3 |
| 20260905050013 | 75 | 127 | 0.0 | 0.0 | 0.00 | 0.00 | 0.00 | 96 | 1017.1 |
| 20260905045507 | 75 | 131 | 0.0 | 0.0 | 0.00 | 0.00 | 0.00 | 96 | 1017.4 |
| 20260905045002 | 75 | 133 | 0.0 | 0.0 | 0.00 | 0.00 | 0.00 | 96 | 1017.4 |
| 20260905044457 | 75 | 172 | 0.0 | 0.0 | 0.00 | 0.00 | 0.00 | 96 | 1017.1 |
| 20260905043956 | 75 | 173 | 0.0 | 0.0 | 0.00 | 0.00 | 0.00 | 96 | 1017.4 |
| 20260905043456 | 76 | 174 | 0.0 | 0.0 | 0.00 | 0.00 | 0.00 | 96 | 1017.1 |
| 20260905042951 | 76 | 191 | 0.0 | 0.0 | 0.00 | 0.00 | 0.00 | 96 | 1017.2 |
| 20260905042450 | 76 | 194 | 0.0 | 0.0 | 0.00 | 0.00 | 0.00 | 97 | 1017.4 |
| 20260905041946 | 76 | 205 | 0.0 | 0.0 | 0.00 | 0.00 | 0.00 | 97 | 1017.2 |
| 20260905041441 | 77 | 194 | 0.0 | 0.0 | 0.00 | 0.00 | 0.00 | 97 | 1017.2 |
| 20260905040937 | 77 | 184 | 0.0 | 0.0 | 0.00 | 0.00 | 0.00 | 97 | 1017.4 |
| 20260905040436 | 76 | 203 | 0.0 | 0.0 | 0.00 | 0.00 | 0.00 | 97 | 1017.8 |
| 20260905035935 | 75 | 150 | 0.0 | 0.0 | 0.00 | 0.00 | 0.00 | 96 | 1017.7 |
| 20260905035430 | 75 | 144 | 0.0 | 0.0 | 0.00 | 0.00 | 0.00 | 96 | 1017.4 |
| 20260905034928 | 75 | 144 | 0.0 | 0.0 | 0.00 | 0.00 | 0.00 | 96 | 1017.6 |
| 20260905034422 | 76 | 144 | 0.0 | 0.0 | 0.00 | 0.00 | 0.00 | 96 | 1017.7 |
| 20260905033921 | 76 | 141 | 0.0 | 0.0 | 0.00 | 0.00 | 0.00 | 96 | 1017.6 |
| 20260905033416 | 76 | 141 | 0.0 | 0.0 | 0.00 | 0.00 | 0.00 | 96 | 1017.9 |
| 20260905032916 | 75 | 141 | 0.0 | 0.0 | 0.00 | 0.00 | 0.00 | 96 | 1017.9 |
| 20260905032412 | 75 | 141 | 0.0 | 0.0 | 0.00 | 0.00 | 0.00 | 96 | 1017.9 |
| 20260905031907 | 75 | 141 | 0.0 | 0.0 | 0.00 | 0.00 | 0.00 | 96 | 1017.6 |
| 20260905031403 | 76 | 141 | 0.0 | 0.0 | 0.00 | 0.00 | 0.00 | 96 | 1017.8 |
| 20260905030858 | 76 | 141 | 0.0 | 0.0 | 0.00 | 0.00 | 0.00 | 96 | 1017.7 |
| 20260905030354 | 76 | 141 | 0.0 | 0.0 | 0.00 | 0.00 | 0.00 | 95 | 1017.9 |
| 20260905025852 | 76 | 141 | 0.0 | 0.0 | 0.00 | 0.00 | 0.00 | 95 | 1017.9 |
| 20260905025348 | 76 | 142 | 0.0 | 0.0 | 0.00 | 0.00 | 0.00 | 95 | 1017.9 |
| 20260905024844 | 77 | 151 | 0.0 | 0.0 | 0.00 | 0.00 | 0.00 | 95 | 1017.5 |
| 20260905024344 | 77 | 151 | 0.0 | 0.0 | 0.00 | 0.00 | 0.00 | 95 | 1017.8 |
| 20260905023840 | 77 | 151 | 0.0 | 0.0 | 0.00 | 0.00 | 0.00 | 95 | 1017.7 |
| 20260905023335 | 77 | 151 | 0.0 | 0.0 | 0.00 | 0.00 | 0.00 | 95 | 1017.7 |
| 20260905022833 | 77 | 151 | 0.0 | 0.0 | 0.00 | 0.00 | 0.00 | 95 | 1017.7 |
| 20260905022329 | 77 | 135 | 0.0 | 0.0 | 0.00 | 0.00 | 0.00 | 95 | 1017.6 |
| 20260905021824 | 77 | 134 | 0.0 | 0.0 | 0.00 | 0.00 | 0.00 | 94 | 1017.7 |
| 20260905021319 | 78 | 134 | 0.0 | 0.0 | 0.00 | 0.00 | 0.00 | 94 | 1017.7 |
| 20260905020814 | 77 | 134 | 0.0 | 0.0 | 0.00 | 0.00 | 0.00 | 93 | 1017.5 |
| 20260905020309 | 78 | 134 | 0.0 | 0.0 | 0.00 | 0.00 | 0.00 | 93 | 1017.7 |
| 20260905015808 | 78 | 134 | 0.0 | 0.0 | 0.00 | 0.00 | 0.00 | 93 | 1017.6 |
| 20260905015306 | 78 | 133 | 0.0 | 0.0 | 0.00 | 0.00 | 0.00 | 93 | 1017.7 |
| 20260905014801 | 78 | 138 | 0.0 | 0.0 | 0.00 | 0.00 | 0.00 | 94 | 1017.8 |
| 20260905014257 | 78 | 133 | 0.0 | 0.0 | 0.00 | 0.00 | 0.00 | 94 | 1017.6 |
| 20260905013752 | 79 | 123 | 0.0 | 0.0 | 0.00 | 0.00 | 0.00 | 93 | 1017.8 |
| 20260905013248 | 79 | 119 | 0.0 | 0.0 | 0.00 | 0.00 | 0.00 | 93 | 1017.5 |
| 20260905012743 | 79 | 128 | 0.0 | 0.0 | 0.00 | 0.00 | 0.00 | 93 | 1017.5 |
| 20260905012239 | 79 | 129 | 0.0 | 0.0 | 0.00 | 0.00 | 0.00 | 92 | 1017.6 |
| 20260905011736 | 79 | 129 | 0.0 | 0.0 | 0.00 | 0.00 | 0.00 | 92 | 1017.6 |
| 20260905011231 | 80 | 127 | 0.0 | 0.0 | 0.00 | 0.00 | 0.00 | 91 | 1017.4 |
| 20260905010731 | 80 | 141 | 0.0 | 0.0 | 0.00 | 0.00 | 0.00 | 91 | 1017.6 |
| 20260905010226 | 80 | 141 | 0.0 | 0.0 | 0.00 | 0.00 | 0.00 | 90 | 1017.7 |
| 20260905005723 | 80 | 141 | 0.0 | 0.0 | 0.00 | 0.00 | 0.00 | 90 | 1017.6 |
| 20260905005218 | 81 | 141 | 0.0 | 0.0 | 0.00 | 0.00 | 0.00 | 89 | 1017.4 |
| 20260905004713 | 81 | 141 | 0.0 | 0.0 | 0.00 | 0.00 | 0.00 | 88 | 1017.8 |
| 20260905004208 | 82 | 141 | 0.0 | 0.0 | 0.00 | 0.00 | 0.00 | 87 | 1017.8 |
| 20260905003703 | 83 | 141 | 0.0 | 0.0 | 0.00 | 0.00 | 0.00 | 86 | 1017.6 |
| 20260905003159 | 83 | 141 | 0.0 | 0.0 | 0.00 | 0.00 | 0.00 | 85 | 1017.5 |
| 20260905002654 | 83 | 144 | 0.0 | 0.0 | 0.00 | 0.00 | 0.00 | 85 | 1017.5 |
| 20260905002154 | 84 | 140 | 0.0 | 0.0 | 0.00 | 0.00 | 0.00 | 83 | 1017.5 |
| 20260905001649 | 84 | 139 | 0.0 | 0.0 | 0.00 | 0.00 | 0.00 | 82 | 1017.5 |
| 20260905001148 | 85 | 171 | 0.0 | 0.0 | 0.00 | 0.00 | 0.00 | 82 | 1017.8 |
| 20260905000644 | 85 | 158 | 0.0 | 0.0 | 0.00 | 0.00 | 0.00 | 81 | 1017.6 |
| 20260905000140 | 86 | 157 | 0.0 | 0.0 | 0.00 | 0.00 | 0.00 | 80 | 1017.6 |
| 20260904235639 | 87 | 157 | 0.0 | 0.0 | 0.00 | 0.00 | 0.00 | 79 | 1017.6 |
| 20260904235139 | 88 | 184 | 0.0 | 0.0 | 0.00 | 0.00 | 0.00 | 76 | 1017.8 |
| 20260904234634 | 88 | 184 | 0.0 | 0.0 | 0.00 | 0.00 | 0.00 | 73 | 1017.6 |
| 20260904234130 | 89 | 184 | 0.0 | 0.0 | 0.00 | 0.00 | 0.00 | 72 | 1017.7 |
| 20260904233625 | 89 | 184 | 0.0 | 0.0 | 0.00 | 0.00 | 0.00 | 70 | 1017.6 |
| 20260904233121 | 90 | 184 | 0.0 | 0.0 | 0.00 | 0.00 | 0.00 | 69 | 1017.6 |
| 20260904232618 | 91 | 183 | 0.0 | 0.0 | 0.00 | 0.00 | 0.00 | 65 | 1017.9 |
| 20260904232114 | 91 | 188 | 0.0 | 0.0 | 0.00 | 0.00 | 0.00 | 64 | 1017.8 |
| 20260904231609 | 91 | 182 | 0.0 | 0.0 | 0.00 | 0.00 | 0.00 | 63 | 1017.6 |
| 20260904231109 | 92 | 172 | 0.0 | 0.0 | 0.00 | 0.00 | 0.00 | 64 | 1017.8 |
| 20260904230608 | 92 | 191 | 0.0 | 0.0 | 0.00 | 0.00 | 0.00 | 61 | 1017.7 |
| 20260904230104 | 92 | 194 | 0.9 | 0.9 | 0.00 | 0.00 | 0.00 | 59 | 1017.8 |
| 20260904225601 | 93 | 256 | 0.9 | 1.7 | 0.00 | 0.00 | 0.00 | 57 | 1017.7 |
| 20260904225056 | 94 | 230 | 0.9 | 0.9 | 0.00 | 0.00 | 0.00 | 57 | 1017.6 |
| 20260904224551 | 94 | 159 | 0.0 | 0.0 | 0.00 | 0.00 | 0.00 | 56 | 1017.8 |
| 20260904224046 | 95 | 202 | 0.9 | 0.9 | 0.00 | 0.00 | 0.00 | 55 | 1017.6 |
| 20260904223545 | 95 | 206 | 1.7 | 1.7 | 0.00 | 0.00 | 0.00 | 55 | 1017.6 |
| 20260904223041 | 95 | 195 | 0.9 | 1.7 | 0.00 | 0.00 | 0.00 | 55 | 1017.7 |
| 20260904222536 | 95 | 189 | 0.0 | 0.9 | 0.00 | 0.00 | 0.00 | 54 | 1017.9 |
| 20260904222031 | 95 | 161 | 0.9 | 0.9 | 0.00 | 0.00 | 0.00 | 53 | 1017.8 |
| 20260904221526 | 95 | 181 | 2.6 | 2.6 | 0.00 | 0.00 | 0.00 | 53 | 1017.7 |
| 20260904221020 | 95 | 199 | 0.9 | 0.9 | 0.00 | 0.00 | 0.00 | 54 | 1017.9 |
| 20260904220520 | 95 | 235 | 2.6 | 4.3 | 0.00 | 0.00 | 0.00 | 53 | 1017.8 |
| 20260904220016 | 95 | 218 | 2.6 | 4.3 | 0.00 | 0.00 | 0.00 | 51 | 1017.9 |
| 20260904215516 | 95 | 303 | 1.7 | 2.6 | 0.00 | 0.00 | 0.00 | 52 | 1017.8 |
| 20260904215012 | 95 | 212 | 2.6 | 2.6 | 0.00 | 0.00 | 0.00 | 54 | 1017.9 |
| 20260904214507 | 95 | 222 | 3.5 | 4.3 | 0.00 | 0.00 | 0.00 | 53 | 1018.2 |
| 20260904214002 | 96 | 250 | 4.3 | 4.3 | 0.00 | 0.00 | 0.00 | 51 | 1018.3 |
| 20260904213500 | 96 | 178 | 1.7 | 2.6 | 0.00 | 0.00 | 0.00 | 53 | 1018.2 |
| 20260904212957 | 96 | 176 | 1.7 | 1.7 | 0.00 | 0.00 | 0.00 | 54 | 1018.2 |
| 20260904212457 | 96 | 240 | 4.3 | 5.2 | 0.00 | 0.00 | 0.00 | 51 | 1018.1 |
| 20260904211952 | 96 | 181 | 0.9 | 0.9 | 0.00 | 0.00 | 0.00 | 53 | 1018.1 |
| 20260904211452 | 98 | 224 | 4.3 | 6.1 | 0.00 | 0.00 | 0.00 | 48 | 1018.2 |
| 20260904210948 | 97 | 2 | 0.9 | 1.7 | 0.00 | 0.00 | 0.00 | 50 | 1018.2 |
| 20260904210446 | 97 | 191 | 0.9 | 1.7 | 0.00 | 0.00 | 0.00 | 50 | 1018.4 |
| 20260904205942 | 97 | 174 | 0.9 | 1.7 | 0.00 | 0.00 | 0.00 | 53 | 1018.6 |
| 20260904205438 | 96 | 195 | 3.5 | 5.2 | 0.00 | 0.00 | 0.00 | 52 | 1018.4 |